Weather in Mussoorie

India     30°27′21″N   78°04′24″E
temp.,
°C
wind,
m/s
gust,
m/s
humid.,
%
clouds,
%
prec.,
mm/h
press.,
hPa
HPBL,
m
29 november, mon
mon2923:30+10ne32650 0.0 102037
02:30+9ne33620 0.0 102041
05:30+9ne33520 0.0 102044
08:30+12ne34410 0.0 102192
11:30+18wsw32300 0.0 1019842
14:30+18wsw32340 0.0 1017884
17:30+11nne21590 0.0 101711
20:30+11ne33560 0.0 101937
30 november, tue
tue3023:30+10ne33510 0.0 101940
02:30+10ne43385 0.0 101745
05:30+9ne332937 0.0 101737
08:30+13ne332935 0.0 101875
11:30+19sw2122100 0.0 1017733
14:30+18sw2129100 0.0 1015731
17:30+11ne115499 0.0 101710
20:30+10ne325088 0.0 101928
1 december, wed
wed123:30+10ne3247100 0.0 101931
02:30+11ne3243100 0.0 101834
05:30+11ne3238100 0.0 101732
08:30+13ne1238100 0.0 101953
11:30+17wsw2133100 0.0 1020597
14:30+15wsw1141100 0.0 1017264
17:30+12ne1149100 0.0 101713
20:30+12ne1144100 0.0 101812
2 december, thu
thu223:30+13ne2240100 0.0 101725
02:30+12ne2235100 0.0 101715
05:30+13ne3231100 0.0 101736
08:30+15ne2234100 0.0 101871
11:30+18wsw1128100 0.0 1018367
14:30+18wnw1132100 0.0 1016356
17:30+13wnw114999 0.0 101610
20:30+12ne214876 0.0 101813
3 december, fri
fri323:30+14ne2239100 0.0 101844
02:30+12ne445188 0.0 101880
05:30+12ne456597 0.1 1018148
08:30+12ne4475100 0.6 1020151
11:30+18ne335295 0.6 1019610
14:30+17nne225347 0.0 1017525
17:30+14ne32665 0.0 101726
20:30+12ne33675 0.0 101941